If you wish to contribute or participate in the discussions about articles you are invited to join SKYbrary as a registered user

 Actions

SPQU

From SKYbrary Wiki

Airport
ICAO: SPQU – IATA: AQP
Summary
Name Arequipa/Rodríguez Ballón International
Region South America and Caribbean
Territory Peru PE.gif
Location Ro Seco, Arequipa
Serving Arequipa
Elevation 2,560.32 m
Coordinates -16° 20' 25.0008", -71° 34' 22.0008"
Runways
Designator Length Width Surface ROPS
9/27 2980 m9,776.903 ft 45 m147.638 ft ASP /


METAR
Observation SPQU 251900Z 25011KT 200V290 9999 SCT030 BKN050 17/07 Q1025 NOSIG RMK PP000
Station Arequipa
Date/Time 25 February 2018 19:00:00
Wind direction 250°
Wind speed 11 kts
Lowest cloud amount scattered clouds
Temperature 17°C
Dew point 7°C
Humidity 51%
QNH 1025 hPa
Weather condition n/a

Rodríguez Ballón International Airport is an airport serving Peru's second largest city, Arequipa. This airport and Cusco's Alejandro Velasco Astete International Airport are the main air hubs in southern Peru.

Climatology

Cool Desert climate (Köppen climate classification BWk).

Maps

Terrain

Airport Layout

Accidents & Serious Incidents at or in vicinity of SPQU

None on SKYbrary